Regional Weather Roundup
Issued by NWS Boston, MA

Current Version | Previous Version | Text Only | Print | Product List | Glossary Off
Versions: 1 2 3 4 5 6 7 8 9 10 11 12 13 14 15 16 17 18 19 20 21 22 23 24 25 26 27

000
ASUS41 KBOX 200410
RWRBOX

REGIONAL WEATHER ROUNDUP
NATIONAL WEATHER SERVICE TAUNTON MA
1100 PM EST FRI JAN 19 2018

NOTE:  "FAIR" INDICATES FEW OR NO CLOUDS BELOW 12,000 FEET WITH NO
SIGNIFICANT WEATHER AND/OR OBSTRUCTIONS TO VISIBILITY.

MAZALL-200500-
EASTERN MASSACHUSETTS

CITY           SKY/WX    TMP DP  RH WIND       PRES   REMARKS
BOSTON         MOCLDY    30  20  66 SW10      29.92F WCI  21
BEVERLY        FAIR      30  20  66 SW7       29.90F WCI  23
LAWRENCE       FAIR      31  20  63 SW8       29.91F WCI  23
BEDFORD        FAIR      29  18  63 S6        29.90F WCI  23
BLUE HILL        N/A     28  17  63 SW15      29.88F WCI  16
NORWOOD        FAIR      31  19  61 S3        29.93F
MARSHFIELD     FAIR      30  19  64 SW6       29.94S WCI  24
PLYMOUTH       FAIR      30  20  66 SW7       29.94F WCI  23
TAUNTON        FAIR      29  19  66 S3        29.94F
NEW BEDFORD    FAIR      27  20  75 SW6       29.95F WCI  20
$$

MAZALL-200500-
CAPE COD AND THE ISLANDS

CITY           SKY/WX    TMP DP  RH WIND       PRES   REMARKS
FALMOUTH       FAIR      28  21  74 SW8       29.96  WCI  20
HYANNIS        FAIR      29  22  75 W7        29.94F WCI  22
CHATHAM        FAIR      31  25  78 SW6       29.96F WCI  25
PROVINCETOWN   FAIR      32  23  69 MISG        N/A
NANTUCKET      FAIR      30  27  88 W8        29.97F WCI  22
MARTHAS VNYRD  FAIR     N/A N/A N/A SW5       29.96F
$$

MAZALL-200500-
CENTRAL AND WESTERN MASSACHUSETTS

CITY           SKY/WX    TMP DP  RH WIND       PRES   REMARKS
WORCESTER      FAIR      25  14  63 SW12      29.86F WCI  14
FITCHBURG      FAIR      28  21  75 SE5       29.89F WCI  23
ORANGE         FAIR      20  19  96 CALM      29.89S FOG
SPRINGFIELD    PTCLDY    24  15  69 S3        29.89F
WESTFIELD      FAIR      24  17  74 SE3       29.90F
NORTH ADAMS    FAIR      17  15  92 VRB3      29.86F FOG
PITTSFIELD     FAIR      17  12  80 CALM      29.83F
$$

RIZALL-200500-
RHODE ISLAND

CITY           SKY/WX    TMP DP  RH WIND       PRES   REMARKS
PROVIDENCE     FAIR      31  20  63 SW8       29.95F WCI  23
NEWPORT        FAIR      31  22  69 CALM      29.95F
BLOCK ISLAND   FAIR      33  23  66 SW8       29.95F WCI  26
SMITHFIELD     FAIR     N/A N/A N/A SW6       29.92F
WESTERLY       FAIR      28  24  85 CALM      29.95F
$$

CTZALL-200500-
CONNECTICUT

CITY           SKY/WX    TMP DP  RH WIND       PRES   REMARKS
BRADLEY INTL   FAIR      28  18  66 S8        29.91F WCI  20
HARTFORD       FAIR      30  19  63 S5        29.93F WCI  25
BRIDGEPORT     FAIR      31  25  78 SW6       29.95F WCI  25
DANBURY        FAIR      20  16  84 CALM      29.93F
GROTON         FAIR      26  21  81 CALM      29.94F
NEW HAVEN      FAIR      22  18  85 CALM      29.94F
CHESTER        FAIR      32  19  59 SW6       29.93F WCI  26
MERIDEN        FAIR      21  17  84 CALM      29.94F
WILLIMANTIC    FAIR      22  16  78 CALM      29.93F
OXFORD         FAIR      25  17  72 SW5       29.91F WCI  19
$$

MEZ002-015-021-024-NHZ003-005-008-011-012-014-VTZ005-008-200500-
NORTHERN NEW ENGLAND

CITY           SKY/WX    TMP DP  RH WIND       PRES   REMARKS
PORTLAND ME    CLOUDY    29  22  75 SW8       29.86F WCI  21
BANGOR ME      CLOUDY    28  22  78 SW3       29.82F
CONCORD NH     FAIR      27  20  75 SE3       29.86F
MANCHESTER NH  MOCLDY    29  20  69 S7        29.86F WCI  22
NASHUA NH      FAIR      20  17  88 SE5       29.89F WCI  13
PORTSMOUTH NH  MOCLDY    28  20  71 SW7       29.86F WCI  21
JAFFREY NH     FAIR      25  20  81 S7        29.83F WCI  17
KEENE NH       NOT AVBL
BURLINGTON VT  MOCLDY    29  19  66 S15G21    29.75F WCI  18
MT. WASHINGTON FOG       14  14 100 W47G66      N/A  VSB 1/16WCI -11
$$

NYZ052-076-200500-
EASTERN NEW YORK

CITY           SKY/WX    TMP DP  RH WIND       PRES   REMARKS
ALBANY         MOCLDY    27  16  63 S13       29.86F WCI  16
NEW YORK CITY  FAIR      39  19  44 SW9       29.95F
$$

ANZALL-200500-
MARINE OBSERVATIONS

STATION/POSITION TIME  TEMP    WIND        PRES    VSBY  WAVE
                       AIR SEA DIR/SP/G                  HT/PER
                 (UTC) (F)     (DEG/KT/KT) (MB)    (MI)  (FT/S)
BOSTON BUOY      0350   34 41  210/ 16/ 17 1012.6F         2/10
BUZZARDS BAY     0400   35     250/ 11/ 12 1014.9F
NANTUCKET SOUND  0350   33 36  270/ 10/ 12 1014.7F         1
MASS BAY-STELLWA 0304   35 38              1012.3F         2/ 3
ISLE OF SHOALS   0400   33     230/ 18/ 19 1011.5F
S OF BLOCK IS    0343      42                N/A           5/ 6
$$

......................KEY.........................
  SKY/WX - SKY CONDITION/PRESENT WEATHER
  TMP    - TEMPERATURE IN FAHRENHEIT
  DWPT   - DEWPOINT IN FAHRENHEIT
  RH     - RELATIVE HUMIDITY IN PERCENT
  WIND   - DIRECTION AND SPEED IN MPH
  PRES   - MEAN SEA LEVEL PRESSURE IN INCHES OF HG
  WCI    - WIND CHILL INDEX
  VSB    - VISIBILITY IN MILES
  HX     - HEAT INDEX
  TC     - TEMPERATURE IN CELSIUS
  VRB    - VARIABLE WIND DIRECTION
  N/A    - NOT AVAILABLE




USA.gov is the U.S. government's official web portal to all federal, state and local government web resources and services.